OPS 4682 DEB, 38405

Orbit data source: Space-Track

OPS 4682 DEB, 38405 is space debris in LEO originally from a launch on Sat, 03 Apr 1965 UTC launched from the Air Force Western Test Range (AFWTR). Debris objects in space refer to the collection of defunct objects orbiting the Earth. Examples of debris include non-operational satellites, rocket bodies, and fragments generated from explosions, collisions, or faulty payload assembly.

Loading next visibility...
Identifier
38405, 1965-027DJ
Orbit
LEO
Country
Flag of USUS
Related business
Manufacturer
Unknown
Mission
Spacecraft
Bus & Motor
Unknown
Mass
Unknown
Launch date (UTC)
1965-04-03 (61 years ago)
Launch vehicle
Unknown
Launch site
Air Force Western Test Range (AFWTR)
Object type
Payload
Rocket body
Debris
Shape & HBR
Unknown shape, 0.1 m
Radar Cross Section
Medium (>0.1 m² and <1 m²)

Expand to show TLE details & history
Last TLE update: 6 days ago

TLE from 6 days ago
0 OPS 4682 DEB
1 38405U 65027DJ  26229.88190423  .00001025  00000-0  33914-2 0  9996
2 38405  90.2677  23.7180 0017379 358.2521   1.8537 12.99782273673074
Epoch: 2026-08-17T21:09Z
TLE epoch observation values (Epoch: 2026-08-17T21:09:56.525Z)
Latitude
-0.00006°
Longitude
99.97477°
Altitude
1,252.548 km
Speed
7.235 km/s
True Right ascension
01h 34m 52s
True Declination
0° 00' 00"
Sunlit
Object was in daylight at epoch
Visualization orbit readout
Latitude
Unknown
Longitude
Unknown
Altitude
Unknown
Speed
Unknown
Apparent Right ascension
Unknown
Apparent Declination
Unknown
Sunlit
N/A
Visualization observer readout
Local Sidereal Time
15:53:55
Azimuth
Unknown
Elevation
Unknown
Doppler factor
Unknown
Orbital elements
Apogee altitude
1,273.342 km
Perigee altitude
1,246.793 km
Semi-major axis
7,638.204 km
Eccentricity
0.00174
Inclination
90.2677°
RAAN
23.718°
Arg. of periapsis
358.2521°
True anomaly
1.86016°
Mean anomaly
1.8537°
Eccentric anomaly
1.85693°
Mean motion
3.25129 °/min
Orbital period
110.73 mins
BSTAR
0.0033914
Loading maneuver chart data...
Computing Atmospheric mass density...
Loading historical data...
Loading historical data...
Loading historical data...
Loading historical data...
Loading historical data...
Loading historical data...
Loading historical data...

Documentation

Showing up to 5 results
|